Location: Byhalia Creek
(34.8270°N, 89.8040°W)
Time: 07:58:22
(UTC+00:00)

Cosmos 2298 Rocket - Pass Details

Date: 22 April 2026
Orbit: 772 x 782 km, 74.0° (Epoch: 15 May)

Event Time Altitude Azimuth Distance (km) Brightness Sun altitude
Rises 02:12:42 0° 189° (S) 3,236 7.0 -19.0°
Reaches altitude 10° 02:15:05 10° 186° (S) 2,314 6.2 -19.4°
Maximum altitude 02:20:17 68° 105° (ESE) 837 3.9 -20.3°
Drops below altitude 10° 02:25:33 10° 23° (NNE) 2,335 6.6 -21.2°
Sets 02:27:57 0° 21° (NNE) 3,268 7.4 -21.6°
